Hourly Data Report for October 09, 2017

All times are specified in Local Standard Time (LST). Add 1 hour to adjust for Daylight Saving Time where and when it is observed.

OTTAWA INTL A
ONTARIO

45°19'00.000" N
75°40'00.000" W
114.90 m
6106001
71628
YOW

Download Data

Hourly Data (October 2017)
Hourly Data Report for October 9, 2017
Temp Definition
°C
Dew Point Temp Definition
°C
Rel Hum Definition
%
Wind Dir Definition
10's deg

Wind Spd Definition
km/h
Visibility Definition
km
Stn Press Definition
kPa
Hmdx Definition


Wind Chill Definition


Weather Definition


TIME
00:00 Legend Double Dagger 14.4 13.7 95 19 9 24.1 100.04     LegendNANA
01:00 Legend Double Dagger 13.3 12.8 97 36 3 24.1 100.05     Mostly Cloudy
02:00 Legend Double Dagger 13.5 13.1 97 15 8 24.1 100.00     LegendNANA
03:00 Legend Double Dagger 13.8 13.3 97 18 10 24.1 100.00     LegendNANA
04:00 Legend Double Dagger 13.5 13.1 97 18 5 24.1 100.01     Cloudy
05:00 Legend Double Dagger 13.2 12.8 98 6 6 24.1 99.99     LegendNANA
06:00 Legend Double Dagger 13.4 13.1 98 7 10 12.9 99.95     LegendNANA
07:00 Legend Double Dagger 13.7 13.4 98 5 9 1.6 99.95     Fog
08:00 Legend Double Dagger 14.2 13.9 98 5 13 8.1 99.96     Rain,Fog
09:00 Legend Double Dagger 14.8 14.3 97 8 13 12.9 99.87     Rain
10:00 Legend Double Dagger 15.2 14.7 96 5 8 12.9 99.87     Rain
11:00 Legend Double Dagger 15.5 15.0 97 7 14 12.9 99.80     Rain
12:00 Legend Double Dagger 15.6 15.2 97 8 17 12.9 99.59     Rain
13:00 Legend Double Dagger 16.2 15.5 96 5 16 16.1 99.54     Rain
14:00 Legend Double Dagger 16.5 15.5 94 36 18 24.1 99.60     LegendNANA
15:00 Legend Double Dagger 16.5 15.5 93 1 14 24.1 99.63     LegendNANA
16:00 Legend Double Dagger 16.8 15.5 92 1 13 24.1 99.65     Rain
17:00 Legend Double Dagger 17.1 15.1 88 35 13 24.1 99.72     LegendNANA
18:00 Legend Double Dagger 16.7 15.6 93 30 7 24.1 99.79     LegendNANA
19:00 Legend Double Dagger 15.0 14.2 95 24 9 24.1 99.88     Mainly Clear
20:00 Legend Double Dagger 14.2 13.7 97 25 9 24.1 99.98     LegendNANA
21:00 Legend Double Dagger 14.3 13.8 97 25 9 24.1 100.04     LegendNANA
22:00 Legend Double Dagger 13.9 13.6 98 24 8 24.1 100.06     Clear
23:00 Legend Double Dagger 13.2 13.0 98 21 10 24.1 100.11     LegendNANA

Notes on Data Quality.

Legend

  • E = Estimated
  • M = Missing
  • NA = Not Available
  • ‡ = Partner data that is not subject to review by the National Climate Archives
Date modified: